Time,TemperatureF,DewpointF,PressureIn,WindDirection,WindDirectionDegrees,WindSpeedMPH,WindSpeedGustMPH,Humidity,HourlyPrecipIn,Conditions,Clouds,dailyrainin,SoftwareType,DateUTC
2013-03-03 00:00:00,25.0,24.5,30.03,NNW,337,17.0,22.0,98,0.00,,---,0.00,VWS V14.01,2013-03-03 05:00:00,
2013-03-03 00:01:00,25.0,24.5,30.03,NNW,337,15.0,15.0,98,0.00,,---,0.00,VWS V14.01,2013-03-03 05:01:00,
2013-03-03 00:05:00,25.0,24.8,30.03,NNW,337,20.0,22.0,99,0.00,,---,0.00,VWS V14.01,2013-03-03 05:05:00,
2013-03-03 00:06:00,25.0,25.0,30.03,NNW,337,18.0,19.0,100,0.00,,---,0.00,VWS V14.01,2013-03-03 05:06:00,
2013-03-03 00:07:00,25.0,25.0,30.03,NNW,337,20.0,20.0,100,0.00,,---,0.00,VWS V14.01,2013-03-03 05:07:00,
2013-03-03 00:10:00,25.0,24.8,30.03,North,360,18.0,19.0,99,0.00,,---,0.00,VWS V14.01,2013-03-03 05:10:00,
2013-03-03 00:12:00,25.0,25.0,30.03,NNW,337,15.0,18.0,100,0.00,,---,0.00,VWS V14.01,2013-03-03 05:12:00,
2013-03-03 00:15:00,25.0,25.0,30.03,North,360,15.0,20.0,100,0.00,,---,0.00,VWS V14.01,2013-03-03 05:15:00,
2013-03-03 00:17:00,25.0,25.0,30.03,North,360,17.0,18.0,100,0.00,,---,0.00,VWS V14.01,2013-03-03 05:17:00,
2013-03-03 00:20:00,25.0,25.0,30.03,North,360,14.0,18.0,100,0.00,,---,0.00,VWS V14.01,2013-03-03 05:20:00,
2013-03-03 00:21:00,25.0,25.0,30.03,North,360,16.0,17.0,100,0.00,,---,0.00,VWS V14.01,2013-03-03 05:21:00,
2013-03-03 00:22:00,24.0,24.0,30.03,North,360,20.0,21.0,100,0.00,,---,0.00,VWS V14.01,2013-03-03 05:22:00,
2013-03-03 00:26:00,24.0,23.5,30.03,North,360,16.0,19.0,98,0.00,,---,0.00,VWS V14.01,2013-03-03 05:26:00,
2013-03-03 00:27:00,24.0,23.5,30.03,North,360,16.0,19.0,98,0.00,,---,0.00,VWS V14.01,2013-03-03 05:27:00,
2013-03-03 00:31:00,24.0,23.8,30.03,NNW,337,19.0,22.0,99,0.00,,---,0.00,VWS V14.01,2013-03-03 05:31:00,
2013-03-03 00:32:00,24.0,23.8,30.03,NNW,337,19.0,20.0,99,0.00,,---,0.00,VWS V14.01,2013-03-03 05:32:00,
2013-03-03 00:36:00,24.0,23.8,30.03,North,360,20.0,21.0,99,0.00,,---,0.00,VWS V14.01,2013-03-03 05:36:00,
2013-03-03 00:37:00,24.0,23.8,30.03,NNW,337,20.0,20.0,99,0.00,,---,0.00,VWS V14.01,2013-03-03 05:37:00,
2013-03-03 00:38:00,25.0,25.0,30.03,NW,315,15.0,17.0,100,0.00,,---,0.00,VWS V14.01,2013-03-03 05:38:00,
2013-03-03 00:41:00,24.0,23.8,30.03,NNW,337,19.0,20.0,99,0.00,,---,0.00,VWS V14.01,2013-03-03 05:41:00,
2013-03-03 00:42:00,24.0,24.0,30.03,NNW,337,16.0,20.0,100,0.00,,---,0.00,VWS V14.01,2013-03-03 05:42:00,
2013-03-03 00:43:00,24.0,24.0,30.03,NNW,337,18.0,21.0,100,0.00,,---,0.00,VWS V14.01,2013-03-03 05:43:00,
2013-03-03 00:47:00,24.0,23.8,30.02,NNW,337,21.0,21.0,99,0.00,,---,0.00,VWS V14.01,2013-03-03 05:47:00,
2013-03-03 00:48:00,24.0,24.0,30.02,North,360,18.0,20.0,100,0.00,,---,0.00,VWS V14.01,2013-03-03 05:48:00,
2013-03-03 00:52:00,24.0,24.0,30.02,NNW,337,16.0,18.0,100,0.00,,---,0.00,VWS V14.01,2013-03-03 05:52:00,
2013-03-03 00:53:00,24.0,24.0,30.02,NNW,337,19.0,21.0,100,0.00,,---,0.00,VWS V14.01,2013-03-03 05:53:00,
2013-03-03 00:57:00,24.0,24.0,30.03,NNW,337,22.0,23.0,100,0.00,,---,0.00,VWS V14.01,2013-03-03 05:57:00,
2013-03-03 00:58:00,24.0,24.0,30.03,NNW,337,17.0,23.0,100,0.00,,---,0.00,VWS V14.01,2013-03-03 05:58:00,
2013-03-03 00:59:00,24.0,24.0,30.03,NNW,337,18.0,21.0,100,0.00,,---,0.00,VWS V14.01,2013-03-03 05:59:00,
2013-03-03 01:02:00,24.0,24.0,30.03,NNW,337,17.0,19.0,100,0.00,,---,0.00,VWS V14.01,2013-03-03 06:02:00,
2013-03-03 01:03:00,24.0,24.0,30.03,NNW,337,20.0,21.0,100,0.00,,---,0.00,VWS V14.01,2013-03-03 06:03:00,
2013-03-03 01:04:00,24.0,24.0,30.03,NNW,337,20.0,21.0,100,0.00,,---,0.00,VWS V14.01,2013-03-03 06:04:00,
2013-03-03 01:07:00,24.0,24.0,30.03,NW,315,23.0,23.0,100,0.00,,---,0.00,VWS V14.01,2013-03-03 06:07:00,
2013-03-03 01:08:00,24.0,24.0,30.03,NW,315,21.0,23.0,100,0.00,,---,0.00,VWS V14.01,2013-03-03 06:08:00,
2013-03-03 01:09:00,24.0,24.0,30.03,NW,315,20.0,23.0,100,0.00,,---,0.00,VWS V14.01,2013-03-03 06:09:00,
2013-03-03 01:13:00,24.0,24.0,30.03,NW,315,20.0,22.0,100,0.00,,---,0.00,VWS V14.01,2013-03-03 06:13:00,
2013-03-03 01:14:00,24.0,24.0,30.03,NNW,337,16.0,21.0,100,0.00,,---,0.00,VWS V14.01,2013-03-03 06:14:00,
2013-03-03 01:18:00,23.0,23.0,30.02,NW,315,18.0,23.0,100,0.00,,---,0.00,VWS V14.01,2013-03-03 06:18:00,
2013-03-03 01:19:00,23.0,23.0,30.02,NW,315,16.0,21.0,100,0.00,,---,0.00,VWS V14.01,2013-03-03 06:19:00,
2013-03-03 01:20:00,24.0,24.0,30.02,NW,315,17.0,21.0,100,0.00,,---,0.00,VWS V14.01,2013-03-03 06:20:00,
2013-03-03 01:23:00,23.0,23.0,30.02,NW,315,22.0,22.0,100,0.00,,---,0.00,VWS V14.01,2013-03-03 06:23:00,
2013-03-03 01:24:00,24.0,24.0,30.02,NNW,337,18.0,21.0,100,0.00,,---,0.00,VWS V14.01,2013-03-03 06:24:00,
2013-03-03 01:25:00,24.0,24.0,30.02,NW,315,19.0,20.0,100,0.00,,---,0.00,VWS V14.01,2013-03-03 06:25:00,
2013-03-03 01:28:00,23.0,23.0,30.02,NW,315,20.0,23.0,100,0.00,,---,0.00,VWS V14.01,2013-03-03 06:28:00,
2013-03-03 01:29:00,23.0,23.0,30.02,NW,315,20.0,21.0,100,0.00,,---,0.00,VWS V14.01,2013-03-03 06:29:00,
2013-03-03 01:30:00,23.0,23.0,30.02,NW,315,21.0,23.0,100,0.00,,---,0.00,VWS V14.01,2013-03-03 06:30:00,
2013-03-03 01:31:00,23.0,23.0,30.02,NW,315,19.0,19.0,100,0.00,,---,0.00,VWS V14.01,2013-03-03 06:31:00,
2013-03-03 01:33:00,23.0,23.0,30.02,NW,315,21.0,24.0,100,0.00,,---,0.00,VWS V14.01,2013-03-03 06:33:00,
2013-03-03 01:34:00,24.0,24.0,30.02,NW,315,20.0,21.0,100,0.00,,---,0.00,VWS V14.01,2013-03-03 06:34:00,
2013-03-03 01:35:00,23.0,23.0,30.02,NW,315,19.0,21.0,100,0.00,,---,0.00,VWS V14.01,2013-03-03 06:35:00,
2013-03-03 01:36:00,23.0,23.0,30.02,NW,315,20.0,20.0,100,0.00,,---,0.00,VWS V14.01,2013-03-03 06:36:00,
2013-03-03 01:38:00,24.0,24.0,30.02,NNW,337,14.0,20.0,100,0.00,,---,0.00,VWS V14.01,2013-03-03 06:38:00,
2013-03-03 01:39:00,23.0,23.0,30.02,NW,315,20.0,21.0,100,0.00,,---,0.00,VWS V14.01,2013-03-03 06:39:00,
2013-03-03 01:41:00,23.0,23.0,30.02,NW,315,19.0,19.0,100,0.00,,---,0.00,VWS V14.01,2013-03-03 06:41:00,
2013-03-03 01:42:00,23.0,23.0,30.02,NW,315,18.0,20.0,100,0.00,,---,0.00,VWS V14.01,2013-03-03 06:42:00,
2013-03-03 01:43:00,23.0,23.0,30.02,NW,315,17.0,21.0,100,0.00,,---,0.00,VWS V14.01,2013-03-03 06:43:00,
2013-03-03 01:44:00,23.0,23.0,30.03,NW,315,18.0,20.0,100,0.00,,---,0.00,VWS V14.01,2013-03-03 06:44:00,
2013-03-03 01:46:00,24.0,24.0,30.03,NW,315,18.0,21.0,100,0.00,,---,0.00,VWS V14.01,2013-03-03 06:46:00,
2013-03-03 01:48:00,23.0,23.0,30.03,NW,315,20.0,23.0,100,0.00,,---,0.00,VWS V14.01,2013-03-03 06:48:00,
2013-03-03 01:49:00,23.0,23.0,30.03,NW,315,18.0,19.0,100,0.00,,---,0.00,VWS V14.01,2013-03-03 06:49:00,
2013-03-03 01:50:00,23.0,23.0,30.03,NW,315,18.0,23.0,100,0.00,,---,0.00,VWS V14.01,2013-03-03 06:50:00,
2013-03-03 01:51:00,23.0,23.0,30.03,NW,315,22.0,22.0,100,0.00,,---,0.00,VWS V14.01,2013-03-03 06:51:00,
2013-03-03 01:53:00,23.0,23.0,30.03,NW,315,18.0,20.0,100,0.00,,---,0.00,VWS V14.01,2013-03-03 06:53:00,
2013-03-03 01:55:00,23.0,23.0,30.02,NW,315,17.0,21.0,100,0.00,,---,0.00,VWS V14.01,2013-03-03 06:55:00,
2013-03-03 01:57:00,23.0,23.0,30.02,NW,315,21.0,21.0,100,0.00,,---,0.00,VWS V14.01,2013-03-03 06:57:00,
2013-03-03 01:59:00,23.0,23.0,30.02,NW,315,18.0,22.0,100,0.00,,---,0.00,VWS V14.01,2013-03-03 06:59:00,
2013-03-03 02:00:00,23.0,23.0,30.02,NW,315,17.0,20.0,100,0.00,,---,0.00,VWS V14.01,2013-03-03 07:00:00,
2013-03-03 02:01:00,23.0,23.0,30.02,NW,315,19.0,19.0,100,0.00,,---,0.00,VWS V14.01,2013-03-03 07:01:00,
2013-03-03 02:02:00,23.0,23.0,30.02,NW,315,20.0,21.0,100,0.00,,---,0.00,VWS V14.01,2013-03-03 07:02:00,
2013-03-03 02:04:00,23.0,23.0,30.03,NW,315,20.0,22.0,100,0.00,,---,0.00,VWS V14.01,2013-03-03 07:04:00,
2013-03-03 02:06:00,23.0,23.0,30.03,NNW,337,18.0,21.0,100,0.00,,---,0.00,VWS V14.01,2013-03-03 07:06:00,
2013-03-03 02:07:00,23.0,23.0,30.03,NNW,337,15.0,20.0,100,0.00,,---,0.00,VWS V14.01,2013-03-03 07:07:00,
2013-03-03 02:09:00,23.0,23.0,30.03,NW,315,19.0,21.0,100,0.00,,---,0.00,VWS V14.01,2013-03-03 07:09:00,
2013-03-03 02:11:00,23.0,23.0,30.03,NW,315,16.0,20.0,100,0.00,,---,0.00,VWS V14.01,2013-03-03 07:11:00,
2013-03-03 02:12:00,23.0,23.0,30.03,NW,315,20.0,21.0,100,0.00,,---,0.00,VWS V14.01,2013-03-03 07:12:00,
2013-03-03 02:16:00,23.0,23.0,30.02,NW,315,20.0,21.0,100,0.00,,---,0.00,VWS V14.01,2013-03-03 07:16:00,
2013-03-03 02:17:00,23.0,23.0,30.02,NW,315,20.0,20.0,100,0.00,,---,0.00,VWS V14.01,2013-03-03 07:17:00,
2013-03-03 02:21:00,23.0,23.0,30.02,NW,315,18.0,18.0,100,0.00,,---,0.00,VWS V14.01,2013-03-03 07:21:00,
2013-03-03 02:23:00,23.0,23.0,30.02,NW,315,15.0,18.0,100,0.00,,---,0.00,VWS V14.01,2013-03-03 07:23:00,
2013-03-03 02:26:00,23.0,23.0,30.02,NW,315,18.0,23.0,100,0.00,,---,0.00,VWS V14.01,2013-03-03 07:26:00,
2013-03-03 02:27:00,23.0,23.0,30.02,NNW,337,18.0,20.0,100,0.00,,---,0.00,VWS V14.01,2013-03-03 07:27:00,
2013-03-03 02:28:00,23.0,23.0,30.02,NNW,337,18.0,20.0,100,0.00,,---,0.00,VWS V14.01,2013-03-03 07:28:00,
2013-03-03 02:31:00,23.0,23.0,30.02,NW,315,15.0,21.0,100,0.00,,---,0.00,VWS V14.01,2013-03-03 07:31:00,
2013-03-03 02:32:00,23.0,23.0,30.02,NW,315,22.0,23.0,100,0.00,,---,0.00,VWS V14.01,2013-03-03 07:32:00,
2013-03-03 02:33:00,23.0,23.0,30.02,NNW,337,20.0,21.0,100,0.00,,---,0.00,VWS V14.01,2013-03-03 07:33:00,
2013-03-03 02:36:00,23.0,23.0,30.01,NW,315,20.0,21.0,100,0.00,,---,0.00,VWS V14.01,2013-03-03 07:36:00,
2013-03-03 02:37:00,23.0,23.0,30.01,NW,315,20.0,22.0,100,0.00,,---,0.00,VWS V14.01,2013-03-03 07:37:00,
2013-03-03 02:38:00,23.0,23.0,30.01,NW,315,22.0,23.0,100,0.00,,---,0.00,VWS V14.01,2013-03-03 07:38:00,
2013-03-03 02:39:00,23.0,23.0,30.01,NW,315,19.0,20.0,100,0.00,,---,0.00,VWS V14.01,2013-03-03 07:39:00,
2013-03-03 02:41:00,23.0,23.0,30.01,NW,315,22.0,23.0,100,0.00,,---,0.00,VWS V14.01,2013-03-03 07:41:00,
2013-03-03 02:42:00,23.0,23.0,30.01,NW,315,22.0,22.0,100,0.00,,---,0.00,VWS V14.01,2013-03-03 07:42:00,
2013-03-03 02:44:00,23.0,23.0,30.01,NNW,337,18.0,20.0,100,0.00,,---,0.00,VWS V14.01,2013-03-03 07:44:00,
2013-03-03 02:47:00,23.0,23.0,30.01,NW,315,21.0,21.0,100,0.00,,---,0.00,VWS V14.01,2013-03-03 07:47:00,
2013-03-03 02:48:00,23.0,23.0,30.01,NW,315,19.0,22.0,100,0.00,,---,0.00,VWS V14.01,2013-03-03 07:48:00,
2013-03-03 02:49:00,23.0,23.0,30.01,NW,315,21.0,23.0,100,0.00,,---,0.00,VWS V14.01,2013-03-03 07:49:00,
2013-03-03 02:52:00,23.0,23.0,30.01,NW,315,20.0,21.0,100,0.00,,---,0.00,VWS V14.01,2013-03-03 07:52:00,
2013-03-03 02:53:00,23.0,23.0,30.01,NW,315,17.0,21.0,100,0.00,,---,0.00,VWS V14.01,2013-03-03 07:53:00,
2013-03-03 02:54:00,23.0,23.0,30.01,NNW,337,22.0,23.0,100,0.00,,---,0.00,VWS V14.01,2013-03-03 07:54:00,
2013-03-03 02:57:00,23.0,23.0,30.01,NW,315,23.0,23.0,100,0.00,,---,0.00,VWS V14.01,2013-03-03 07:57:00,
2013-03-03 02:58:00,23.0,23.0,30.01,NW,315,23.0,23.0,100,0.00,,---,0.00,VWS V14.01,2013-03-03 07:58:00,
2013-03-03 02:59:00,23.0,23.0,30.01,NW,315,22.0,23.0,100,0.00,,---,0.00,VWS V14.01,2013-03-03 07:59:00,
2013-03-03 03:03:00,23.0,23.0,30.01,NW,315,21.0,24.0,100,0.00,,---,0.00,VWS V14.01,2013-03-03 08:03:00,
2013-03-03 03:04:00,23.0,23.0,30.01,NW,315,18.0,20.0,100,0.00,,---,0.00,VWS V14.01,2013-03-03 08:04:00,
2013-03-03 03:05:00,23.0,23.0,30.01,NW,315,21.0,23.0,100,0.00,,---,0.00,VWS V14.01,2013-03-03 08:05:00,
2013-03-03 03:08:00,23.0,23.0,30.01,NW,315,20.0,21.0,100,0.00,,---,0.00,VWS V14.01,2013-03-03 08:08:00,
2013-03-03 03:09:00,23.0,23.0,30.01,NW,315,21.0,21.0,100,0.00,,---,0.00,VWS V14.01,2013-03-03 08:09:00,
2013-03-03 03:10:00,23.0,23.0,30.01,NNW,337,21.0,24.0,100,0.00,,---,0.00,VWS V14.01,2013-03-03 08:10:00,
2013-03-03 03:14:00,23.0,23.0,30.01,NW,315,18.0,18.0,100,0.00,,---,0.00,VWS V14.01,2013-03-03 08:14:00,
2013-03-03 03:16:00,23.0,23.0,30.01,NNW,337,17.0,22.0,100,0.00,,---,0.00,VWS V14.01,2013-03-03 08:16:00,
2013-03-03 03:19:00,23.0,23.0,30.01,NW,315,20.0,21.0,100,0.00,,---,0.00,VWS V14.01,2013-03-03 08:19:00,
2013-03-03 03:20:00,23.0,23.0,30.01,NW,315,18.0,20.0,100,0.00,,---,0.00,VWS V14.01,2013-03-03 08:20:00,
2013-03-03 03:21:00,23.0,23.0,30.01,NW,315,19.0,21.0,100,0.00,,---,0.00,VWS V14.01,2013-03-03 08:21:00,
2013-03-03 03:24:00,23.0,23.0,30.01,NW,315,21.0,21.0,100,0.00,,---,0.00,VWS V14.01,2013-03-03 08:24:00,
2013-03-03 03:25:00,23.0,23.0,30.01,NW,315,23.0,24.0,100,0.00,,---,0.00,VWS V14.01,2013-03-03 08:25:00,
2013-03-03 03:26:00,23.0,23.0,30.01,NW,315,18.0,23.0,100,0.00,,---,0.00,VWS V14.01,2013-03-03 08:26:00,
2013-03-03 03:29:00,23.0,23.0,30.01,NW,315,21.0,23.0,100,0.00,,---,0.00,VWS V14.01,2013-03-03 08:29:00,
2013-03-03 03:30:00,23.0,23.0,30.01,NNW,337,18.0,21.0,100,0.00,,---,0.00,VWS V14.01,2013-03-03 08:30:00,
2013-03-03 03:32:00,23.0,23.0,30.01,NW,315,17.0,20.0,100,0.00,,---,0.00,VWS V14.01,2013-03-03 08:32:00,
2013-03-03 03:35:00,23.0,23.0,30.00,NNW,337,21.0,21.0,100,0.00,,---,0.00,VWS V14.01,2013-03-03 08:35:00,
2013-03-03 03:37:00,23.0,23.0,30.00,NNW,337,16.0,19.0,100,0.00,,---,0.00,VWS V14.01,2013-03-03 08:37:00,
2013-03-03 03:40:00,23.0,23.0,30.00,NW,315,18.0,21.0,100,0.00,,---,0.00,VWS V14.01,2013-03-03 08:40:00,
2013-03-03 03:41:00,23.0,23.0,30.00,NW,315,20.0,21.0,100,0.00,,---,0.00,VWS V14.01,2013-03-03 08:41:00,
2013-03-03 03:42:00,23.0,23.0,30.00,NNW,337,16.0,20.0,100,0.00,,---,0.00,VWS V14.01,2013-03-03 08:42:00,
2013-03-03 03:45:00,23.0,23.0,30.00,NNW,337,14.0,20.0,100,0.00,,---,0.00,VWS V14.01,2013-03-03 08:45:00,
2013-03-03 03:46:00,23.0,23.0,30.00,NNW,337,19.0,19.0,100,0.00,,---,0.00,VWS V14.01,2013-03-03 08:46:00,
2013-03-03 03:47:00,23.0,23.0,30.00,NNW,337,21.0,22.0,100,0.00,,---,0.00,VWS V14.01,2013-03-03 08:47:00,
2013-03-03 03:50:00,23.0,22.8,30.00,NW,315,20.0,21.0,99,0.00,,---,0.00,VWS V14.01,2013-03-03 08:50:00,
2013-03-03 03:51:00,23.0,22.8,30.00,NW,315,19.0,23.0,99,0.00,,---,0.00,VWS V14.01,2013-03-03 08:51:00,
2013-03-03 03:53:00,23.0,22.8,30.00,NNW,337,15.0,18.0,99,0.00,,---,0.00,VWS V14.01,2013-03-03 08:53:00,
2013-03-03 03:55:00,23.0,23.0,30.00,NNW,337,16.0,18.0,100,0.00,,---,0.00,VWS V14.01,2013-03-03 08:55:00,
2013-03-03 03:56:00,23.0,22.8,30.00,NNW,337,20.0,21.0,99,0.00,,---,0.00,VWS V14.01,2013-03-03 08:56:00,
2013-03-03 03:57:00,23.0,22.8,30.00,NW,315,16.0,18.0,99,0.00,,---,0.00,VWS V14.01,2013-03-03 08:57:00,
2013-03-03 03:58:00,23.0,22.8,30.00,NW,315,18.0,18.0,99,0.00,,---,0.00,VWS V14.01,2013-03-03 08:58:00,
2013-03-03 04:01:00,23.0,22.8,30.00,NNW,337,13.0,18.0,99,0.00,,---,0.00,VWS V14.01,2013-03-03 09:01:00,
2013-03-03 04:03:00,23.0,22.3,30.00,NNW,337,16.0,20.0,97,0.00,,---,0.00,VWS V14.01,2013-03-03 09:03:00,
2013-03-03 04:06:00,23.0,22.0,30.00,NW,315,16.0,19.0,96,0.00,,---,0.00,VWS V14.01,2013-03-03 09:06:00,
2013-03-03 04:08:00,23.0,21.8,30.00,NW,315,19.0,19.0,95,0.00,,---,0.00,VWS V14.01,2013-03-03 09:08:00,
2013-03-03 04:11:00,23.0,21.5,30.00,NNW,337,17.0,20.0,94,0.00,,---,0.00,VWS V14.01,2013-03-03 09:11:00,
2013-03-03 04:12:00,23.0,21.8,30.00,NNW,337,17.0,18.0,95,0.00,,---,0.00,VWS V14.01,2013-03-03 09:12:00,
2013-03-03 04:13:00,23.0,21.8,30.00,NNW,337,15.0,20.0,95,0.00,,---,0.00,VWS V14.01,2013-03-03 09:13:00,
2013-03-03 04:16:00,23.0,21.8,30.00,NNW,337,16.0,19.0,95,0.00,,---,0.00,VWS V14.01,2013-03-03 09:16:00,
2013-03-03 04:18:00,23.0,21.8,30.00,NW,315,16.0,16.0,95,0.00,,---,0.00,VWS V14.01,2013-03-03 09:18:00,
2013-03-03 04:21:00,23.0,21.8,30.00,NNW,337,16.0,19.0,95,0.00,,---,0.00,VWS V14.01,2013-03-03 09:21:00,
2013-03-03 04:23:00,23.0,22.3,30.00,NW,315,18.0,18.0,97,0.00,,---,0.00,VWS V14.01,2013-03-03 09:23:00,
2013-03-03 04:26:00,23.0,22.0,30.00,NW,315,14.0,18.0,96,0.00,,---,0.00,VWS V14.01,2013-03-03 09:26:00,
2013-03-03 04:28:00,23.0,21.8,30.00,NW,315,18.0,18.0,95,0.00,,---,0.00,VWS V14.01,2013-03-03 09:28:00,
2013-03-03 04:29:00,23.0,21.8,30.00,NW,315,16.0,18.0,95,0.00,,---,0.00,VWS V14.01,2013-03-03 09:29:00,
2013-03-03 04:32:00,23.0,21.5,30.00,NW,315,14.0,16.0,94,0.00,,---,0.00,VWS V14.01,2013-03-03 09:32:00,
2013-03-03 04:33:00,23.0,21.3,30.00,NW,315,15.0,17.0,93,0.00,,---,0.00,VWS V14.01,2013-03-03 09:33:00,
2013-03-03 04:34:00,23.0,21.3,30.00,NW,315,16.0,18.0,93,0.00,,---,0.00,VWS V14.01,2013-03-03 09:34:00,
2013-03-03 04:37:00,23.0,22.0,30.01,NW,315,17.0,19.0,96,0.00,,---,0.00,VWS V14.01,2013-03-03 09:37:00,
2013-03-03 04:38:00,23.0,22.3,30.01,NW,315,17.0,20.0,97,0.00,,---,0.00,VWS V14.01,2013-03-03 09:38:00,
2013-03-03 04:39:00,23.0,22.3,30.01,NW,315,16.0,17.0,97,0.00,,---,0.00,VWS V14.01,2013-03-03 09:39:00,
2013-03-03 04:40:00,23.0,22.3,30.01,NW,315,15.0,16.0,97,0.00,,---,0.00,VWS V14.01,2013-03-03 09:40:00,
2013-03-03 04:42:00,23.0,22.5,30.01,NW,315,18.0,19.0,98,0.00,,---,0.00,VWS V14.01,2013-03-03 09:42:00,
2013-03-03 04:44:00,23.0,22.3,30.01,NW,315,16.0,18.0,97,0.00,,---,0.00,VWS V14.01,2013-03-03 09:44:00,
2013-03-03 04:45:00,23.0,22.3,30.01,NW,315,17.0,18.0,97,0.00,,---,0.00,VWS V14.01,2013-03-03 09:45:00,
2013-03-03 04:48:00,23.0,22.0,30.01,NW,315,17.0,18.0,96,0.00,,---,0.00,VWS V14.01,2013-03-03 09:48:00,
2013-03-03 04:49:00,23.0,21.8,30.01,NW,315,15.0,18.0,95,0.00,,---,0.00,VWS V14.01,2013-03-03 09:49:00,
2013-03-03 04:51:00,23.0,22.3,30.01,NW,315,15.0,20.0,97,0.00,,---,0.00,VWS V14.01,2013-03-03 09:51:00,
2013-03-03 04:53:00,23.0,22.3,30.01,NW,315,16.0,18.0,97,0.00,,---,0.00,VWS V14.01,2013-03-03 09:53:00,
2013-03-03 04:54:00,23.0,22.3,30.01,NW,315,17.0,17.0,97,0.00,,---,0.00,VWS V14.01,2013-03-03 09:54:00,
2013-03-03 04:56:00,23.0,22.5,30.01,NW,315,16.0,18.0,98,0.00,,---,0.00,VWS V14.01,2013-03-03 09:56:00,
2013-03-03 04:58:00,23.0,22.5,30.01,NW,315,15.0,20.0,98,0.00,,---,0.00,VWS V14.01,2013-03-03 09:58:00,
2013-03-03 04:59:00,23.0,22.5,30.01,NW,315,13.0,17.0,98,0.00,,---,0.00,VWS V14.01,2013-03-03 09:59:00,
2013-03-03 05:02:00,23.0,22.8,30.01,NW,315,18.0,18.0,99,0.00,,---,0.00,VWS V14.01,2013-03-03 10:02:00,
2013-03-03 05:04:00,23.0,22.5,30.01,NW,315,15.0,16.0,98,0.00,,---,0.00,VWS V14.01,2013-03-03 10:04:00,
2013-03-03 05:05:00,23.0,22.5,30.01,NW,315,18.0,18.0,98,0.00,,---,0.00,VWS V14.01,2013-03-03 10:05:00,
2013-03-03 05:07:00,23.0,22.5,30.01,NW,315,14.0,18.0,98,0.00,,---,0.00,VWS V14.01,2013-03-03 10:07:00,
2013-03-03 05:09:00,23.0,22.5,30.01,NW,315,17.0,17.0,98,0.00,,---,0.00,VWS V14.01,2013-03-03 10:09:00,
2013-03-03 05:10:00,23.0,22.5,30.01,NW,315,16.0,16.0,98,0.00,,---,0.00,VWS V14.01,2013-03-03 10:10:00,
2013-03-03 05:13:00,23.0,22.3,30.01,NW,315,13.0,15.0,97,0.00,,---,0.00,VWS V14.01,2013-03-03 10:13:00,
2013-03-03 05:14:00,23.0,22.3,30.01,NW,315,14.0,15.0,97,0.00,,---,0.00,VWS V14.01,2013-03-03 10:14:00,
2013-03-03 05:15:00,23.0,22.5,30.01,NW,315,14.0,15.0,98,0.00,,---,0.00,VWS V14.01,2013-03-03 10:15:00,
2013-03-03 05:18:00,23.0,22.5,30.01,WNW,292,11.0,14.0,98,0.00,,---,0.00,VWS V14.01,2013-03-03 10:18:00,
2013-03-03 05:19:00,23.0,22.5,30.01,NW,315,14.0,16.0,98,0.00,,---,0.00,VWS V14.01,2013-03-03 10:19:00,
2013-03-03 05:20:00,23.0,22.5,30.01,NW,315,16.0,16.0,98,0.00,,---,0.00,VWS V14.01,2013-03-03 10:20:00,
2013-03-03 05:23:00,23.0,22.3,30.01,NW,315,15.0,17.0,97,0.00,,---,0.00,VWS V14.01,2013-03-03 10:23:00,
2013-03-03 05:25:00,23.0,22.3,30.01,NW,315,15.0,15.0,97,0.00,,---,0.00,VWS V14.01,2013-03-03 10:25:00,
2013-03-03 05:28:00,23.0,22.0,30.01,NW,315,12.0,16.0,96,0.00,,---,0.00,VWS V14.01,2013-03-03 10:28:00,
2013-03-03 05:30:00,23.0,22.0,30.01,NW,315,11.0,12.0,96,0.00,,---,0.00,VWS V14.01,2013-03-03 10:30:00,
2013-03-03 05:31:00,23.0,22.3,30.01,NW,315,11.0,15.0,97,0.00,,---,0.00,VWS V14.01,2013-03-03 10:31:00,
2013-03-03 05:33:00,23.0,22.3,30.01,NW,315,10.0,10.0,97,0.00,,---,0.00,VWS V14.01,2013-03-03 10:33:00,
2013-03-03 05:35:00,23.0,22.3,30.01,NW,315,10.0,10.0,97,0.00,,---,0.00,VWS V14.01,2013-03-03 10:35:00,
2013-03-03 05:36:00,23.0,22.0,30.01,NW,315,13.0,13.0,96,0.00,,---,0.00,VWS V14.01,2013-03-03 10:36:00,
2013-03-03 05:38:00,23.0,22.0,30.01,NW,315,11.0,15.0,96,0.00,,---,0.00,VWS V14.01,2013-03-03 10:38:00,
2013-03-03 05:40:00,23.0,22.0,30.01,NW,315,12.0,12.0,96,0.00,,---,0.00,VWS V14.01,2013-03-03 10:40:00,
2013-03-03 05:41:00,23.0,22.3,30.01,NW,315,10.0,15.0,97,0.00,,---,0.00,VWS V14.01,2013-03-03 10:41:00,
2013-03-03 05:42:00,23.0,22.3,30.01,NW,315,11.0,11.0,97,0.00,,---,0.00,VWS V14.01,2013-03-03 10:42:00,
2013-03-03 05:43:00,23.0,22.3,30.01,NW,315,12.0,15.0,97,0.00,,---,0.00,VWS V14.01,2013-03-03 10:43:00,
2013-03-03 05:45:00,23.0,22.3,30.01,NW,315,10.0,15.0,97,0.00,,---,0.00,VWS V14.01,2013-03-03 10:45:00,
2013-03-03 05:46:00,23.0,22.3,30.01,NW,315,15.0,16.0,97,0.00,,---,0.00,VWS V14.01,2013-03-03 10:46:00,
2013-03-03 05:47:00,23.0,22.3,30.01,NW,315,14.0,16.0,97,0.00,,---,0.00,VWS V14.01,2013-03-03 10:47:00,
2013-03-03 05:49:00,23.0,22.5,30.01,WNW,292,11.0,11.0,98,0.00,,---,0.00,VWS V14.01,2013-03-03 10:49:00,
2013-03-03 05:51:00,23.0,22.8,30.01,NW,315,11.0,15.0,99,0.00,,---,0.00,VWS V14.01,2013-03-03 10:51:00,
2013-03-03 05:52:00,23.0,23.0,30.01,NW,315,13.0,15.0,100,0.00,,---,0.00,VWS V14.01,2013-03-03 10:52:00,
2013-03-03 05:54:00,23.0,22.8,30.01,NW,315,14.0,15.0,99,0.00,,---,0.00,VWS V14.01,2013-03-03 10:54:00,
2013-03-03 05:56:00,23.0,22.8,30.01,NW,315,13.0,16.0,99,0.00,,---,0.00,VWS V14.01,2013-03-03 10:56:00,
2013-03-03 05:57:00,23.0,22.5,30.01,NW,315,16.0,16.0,98,0.00,,---,0.00,VWS V14.01,2013-03-03 10:57:00,
2013-03-03 05:58:00,23.0,22.5,30.01,NW,315,15.0,15.0,98,0.00,,---,0.00,VWS V14.01,2013-03-03 10:58:00,
2013-03-03 05:59:00,23.0,22.3,30.01,NW,315,11.0,16.0,97,0.00,,---,0.00,VWS V14.01,2013-03-03 10:59:00,
2013-03-03 06:02:00,23.0,22.3,30.01,NW,315,10.0,14.0,97,0.00,,---,0.00,VWS V14.01,2013-03-03 11:02:00,
2013-03-03 06:03:00,23.0,22.3,30.01,NW,315,10.0,15.0,97,0.00,,---,0.00,VWS V14.01,2013-03-03 11:03:00,
2013-03-03 06:05:00,23.0,22.3,30.01,NW,315,15.0,16.0,97,0.00,,---,0.00,VWS V14.01,2013-03-03 11:05:00,
2013-03-03 06:07:00,23.0,22.8,30.01,NW,315,9.0,13.0,99,0.00,,---,0.00,VWS V14.01,2013-03-03 11:07:00,
2013-03-03 06:08:00,23.0,22.8,30.01,NW,315,13.0,16.0,99,0.00,,---,0.00,VWS V14.01,2013-03-03 11:08:00,
2013-03-03 06:11:00,23.0,22.8,30.01,NW,315,13.0,14.0,99,0.00,,---,0.00,VWS V14.01,2013-03-03 11:11:00,
2013-03-03 06:12:00,23.0,22.5,30.01,NW,315,13.0,16.0,98,0.00,,---,0.00,VWS V14.01,2013-03-03 11:12:00,
2013-03-03 06:14:00,23.0,22.8,30.01,WNW,292,8.0,11.0,99,0.00,,---,0.00,VWS V14.01,2013-03-03 11:14:00,
2013-03-03 06:16:00,23.0,22.8,30.01,NW,315,13.0,16.0,99,0.00,,---,0.00,VWS V14.01,2013-03-03 11:16:00,
2013-03-03 06:17:00,23.0,22.8,30.01,NW,315,16.0,17.0,99,0.00,,---,0.00,VWS V14.01,2013-03-03 11:17:00,
2013-03-03 06:19:00,23.0,23.0,30.01,NW,315,15.0,16.0,100,0.00,,---,0.00,VWS V14.01,2013-03-03 11:19:00,
2013-03-03 06:22:00,23.0,23.0,30.01,NW,315,17.0,18.0,100,0.00,,---,0.00,VWS V14.01,2013-03-03 11:22:00,
2013-03-03 06:24:00,23.0,23.0,30.01,NW,315,14.0,18.0,100,0.00,,---,0.00,VWS V14.01,2013-03-03 11:24:00,
2013-03-03 06:27:00,23.0,23.0,30.01,NW,315,13.0,18.0,100,0.00,,---,0.00,VWS V14.01,2013-03-03 11:27:00,
2013-03-03 06:28:00,23.0,23.0,30.01,NW,315,15.0,16.0,100,0.00,,---,0.00,VWS V14.01,2013-03-03 11:28:00,
2013-03-03 06:29:00,23.0,23.0,30.01,NW,315,16.0,21.0,100,0.00,,---,0.00,VWS V14.01,2013-03-03 11:29:00,
2013-03-03 06:32:00,23.0,23.0,30.01,NW,315,20.0,21.0,100,0.00,,---,0.00,VWS V14.01,2013-03-03 11:32:00,
2013-03-03 06:33:00,23.0,23.0,30.01,NW,315,13.0,20.0,100,0.00,,---,0.00,VWS V14.01,2013-03-03 11:33:00,
2013-03-03 06:34:00,23.0,23.0,30.01,NW,315,17.0,21.0,100,0.00,,---,0.00,VWS V14.01,2013-03-03 11:34:00,
2013-03-03 06:37:00,23.0,23.0,30.01,NW,315,19.0,21.0,100,0.00,,---,0.00,VWS V14.01,2013-03-03 11:37:00,
2013-03-03 06:38:00,23.0,23.0,30.01,NW,315,19.0,22.0,100,0.00,,---,0.00,VWS V14.01,2013-03-03 11:38:00,
2013-03-03 06:40:00,23.0,23.0,30.01,NW,315,18.0,18.0,100,0.00,,---,0.00,VWS V14.01,2013-03-03 11:40:00,
2013-03-03 06:42:00,23.0,23.0,30.01,NW,315,13.0,18.0,100,0.00,,---,0.00,VWS V14.01,2013-03-03 11:42:00,
2013-03-03 06:43:00,23.0,23.0,30.01,NW,315,15.0,20.0,100,0.00,,---,0.00,VWS V14.01,2013-03-03 11:43:00,
2013-03-03 06:46:00,23.0,23.0,30.01,NW,315,16.0,19.0,100,0.00,,---,0.00,VWS V14.01,2013-03-03 11:46:00,
2013-03-03 06:47:00,23.0,23.0,30.01,NW,315,17.0,19.0,100,0.00,,---,0.00,VWS V14.01,2013-03-03 11:47:00,
2013-03-03 06:49:00,23.0,23.0,30.01,NW,315,13.0,16.0,100,0.00,,---,0.00,VWS V14.01,2013-03-03 11:49:00,
2013-03-03 06:51:00,23.0,23.0,30.01,NW,315,11.0,20.0,100,0.00,,---,0.00,VWS V14.01,2013-03-03 11:51:00,
2013-03-03 06:52:00,23.0,23.0,30.01,NW,315,13.0,20.0,100,0.00,,---,0.00,VWS V14.01,2013-03-03 11:52:00,
2013-03-03 06:54:00,23.0,23.0,30.01,NW,315,14.0,16.0,100,0.00,,---,0.00,VWS V14.01,2013-03-03 11:54:00,
2013-03-03 06:55:00,23.0,23.0,30.01,NW,315,11.0,16.0,100,0.00,,---,0.00,VWS V14.01,2013-03-03 11:55:00,
2013-03-03 06:56:00,23.0,23.0,30.01,NW,315,15.0,16.0,100,0.00,,---,0.00,VWS V14.01,2013-03-03 11:56:00,
2013-03-03 06:58:00,23.0,23.0,30.01,NW,315,13.0,16.0,100,0.00,,---,0.00,VWS V14.01,2013-03-03 11:58:00,
2013-03-03 06:59:00,23.0,23.0,30.01,NW,315,19.0,20.0,100,0.00,,---,0.00,VWS V14.01,2013-03-03 11:59:00,
2013-03-03 07:00:00,23.0,23.0,30.01,NW,315,13.0,18.0,100,0.00,,---,0.00,VWS V14.01,2013-03-03 12:00:00,
2013-03-03 07:02:00,23.0,23.0,30.01,NW,315,14.0,18.0,100,0.00,,---,0.00,VWS V14.01,2013-03-03 12:02:00,
2013-03-03 07:03:00,23.0,23.0,30.01,NW,315,17.0,19.0,100,0.00,,---,0.00,VWS V14.01,2013-03-03 12:03:00,
2013-03-03 07:05:00,23.0,23.0,30.01,NW,315,18.0,19.0,100,0.00,,---,0.00,VWS V14.01,2013-03-03 12:05:00,
2013-03-03 07:07:00,23.0,23.0,30.01,NW,315,14.0,15.0,100,0.00,,---,0.00,VWS V14.01,2013-03-03 12:07:00,
2013-03-03 07:08:00,23.0,23.0,30.01,NW,315,15.0,17.0,100,0.00,,---,0.00,VWS V14.01,2013-03-03 12:08:00,
2013-03-03 07:10:00,23.0,23.0,30.01,NW,315,17.0,19.0,100,0.00,,---,0.00,VWS V14.01,2013-03-03 12:10:00,
2013-03-03 07:13:00,23.0,23.0,30.01,NW,315,16.0,17.0,100,0.00,,---,0.00,VWS V14.01,2013-03-03 12:13:00,
2013-03-03 07:14:00,23.0,23.0,30.01,NW,315,18.0,18.0,100,0.00,,---,0.00,VWS V14.01,2013-03-03 12:14:00,
2013-03-03 07:16:00,23.0,23.0,30.01,NW,315,18.0,18.0,100,0.00,,---,0.00,VWS V14.01,2013-03-03 12:16:00,
2013-03-03 07:18:00,23.0,23.0,30.01,NW,315,18.0,18.0,100,0.00,,---,0.00,VWS V14.01,2013-03-03 12:18:00,
2013-03-03 07:19:00,23.0,23.0,30.01,NW,315,18.0,18.0,100,0.00,,---,0.00,VWS V14.01,2013-03-03 12:19:00,
2013-03-03 07:21:00,23.0,23.0,30.01,NW,315,18.0,18.0,100,0.00,,---,0.00,VWS V14.01,2013-03-03 12:21:00,
2013-03-03 07:23:00,23.0,23.0,30.01,NW,315,18.0,18.0,100,0.00,,---,0.00,VWS V14.01,2013-03-03 12:23:00,
2013-03-03 07:24:00,23.0,23.0,30.01,NW,315,18.0,18.0,100,0.00,,---,0.00,VWS V14.01,2013-03-03 12:24:00,
2013-03-03 07:45:00,23.0,23.0,30.02,NW,315,13.0,18.0,100,0.00,,---,0.00,VWS V14.01,2013-03-03 12:45:00,
2013-03-03 07:46:00,23.0,23.0,30.02,NW,315,17.0,17.0,100,0.00,,---,0.00,VWS V14.01,2013-03-03 12:46:00,
2013-03-03 07:50:00,23.0,23.0,30.02,NW,315,16.0,17.0,100,0.00,,---,0.00,VWS V14.01,2013-03-03 12:50:00,
2013-03-03 07:51:00,23.0,23.0,30.02,NW,315,16.0,19.0,100,0.00,,---,0.00,VWS V14.01,2013-03-03 12:51:00,
2013-03-03 07:56:00,23.0,23.0,30.02,NW,315,16.0,16.0,100,0.00,,---,0.00,VWS V14.01,2013-03-03 12:56:00,
2013-03-03 07:57:00,23.0,23.0,30.02,NW,315,15.0,16.0,100,0.00,,---,0.00,VWS V14.01,2013-03-03 12:57:00,
2013-03-03 08:01:00,23.0,23.0,30.02,NW,315,15.0,18.0,100,0.00,,---,0.00,VWS V14.01,2013-03-03 13:01:00,
2013-03-03 08:02:00,23.0,23.0,30.02,NW,315,15.0,18.0,100,0.00,,---,0.00,VWS V14.01,2013-03-03 13:02:00,
2013-03-03 08:03:00,23.0,23.0,30.02,NW,315,19.0,19.0,100,0.00,,---,0.00,VWS V14.01,2013-03-03 13:03:00,
2013-03-03 08:06:00,23.0,23.0,30.02,NW,315,15.0,18.0,100,0.00,,---,0.00,VWS V14.01,2013-03-03 13:06:00,
2013-03-03 08:07:00,23.0,23.0,30.02,NW,315,20.0,20.0,100,0.00,,---,0.00,VWS V14.01,2013-03-03 13:07:00,
2013-03-03 08:08:00,23.0,23.0,30.02,NW,315,13.0,18.0,100,0.00,,---,0.00,VWS V14.01,2013-03-03 13:08:00,
2013-03-03 08:11:00,23.0,23.0,30.02,NW,315,18.0,18.0,100,0.00,,---,0.00,VWS V14.01,2013-03-03 13:11:00,
2013-03-03 08:12:00,23.0,23.0,30.02,NW,315,16.0,16.0,100,0.00,,---,0.00,VWS V14.01,2013-03-03 13:12:00,
2013-03-03 08:13:00,23.0,23.0,30.02,NW,315,12.0,16.0,100,0.00,,---,0.00,VWS V14.01,2013-03-03 13:13:00,
2013-03-03 08:16:00,23.0,23.0,30.02,NW,315,16.0,17.0,100,0.00,,---,0.00,VWS V14.01,2013-03-03 13:16:00,
2013-03-03 08:17:00,23.0,23.0,30.02,NW,315,13.0,16.0,100,0.00,,---,0.00,VWS V14.01,2013-03-03 13:17:00,
2013-03-03 08:18:00,23.0,23.0,30.02,NW,315,16.0,17.0,100,0.00,,---,0.00,VWS V14.01,2013-03-03 13:18:00,
2013-03-03 08:21:00,23.0,23.0,30.02,NW,315,12.0,15.0,100,0.00,,---,0.00,VWS V14.01,2013-03-03 13:21:00,
2013-03-03 08:22:00,23.0,23.0,30.02,NW,315,15.0,18.0,100,0.00,,---,0.00,VWS V14.01,2013-03-03 13:22:00,
2013-03-03 08:24:00,23.0,23.0,30.02,NW,315,13.0,15.0,100,0.00,,---,0.00,VWS V14.01,2013-03-03 13:24:00,
2013-03-03 08:26:00,23.0,23.0,30.03,NW,315,15.0,16.0,100,0.00,,---,0.00,VWS V14.01,2013-03-03 13:26:00,
2013-03-03 08:27:00,23.0,23.0,30.03,NW,315,11.0,16.0,100,0.00,,---,0.00,VWS V14.01,2013-03-03 13:27:00,
2013-03-03 08:28:00,23.0,23.0,30.03,NW,315,14.0,14.0,100,0.00,,---,0.00,VWS V14.01,2013-03-03 13:28:00,
2013-03-03 08:29:00,23.0,23.0,30.03,NW,315,14.0,14.0,100,0.00,,---,0.00,VWS V14.01,2013-03-03 13:29:00,
2013-03-03 08:31:00,23.0,23.0,30.03,NW,315,16.0,18.0,100,0.00,,---,0.00,VWS V14.01,2013-03-03 13:31:00,
2013-03-03 08:32:00,23.0,23.0,30.03,NW,315,15.0,19.0,100,0.00,,---,0.00,VWS V14.01,2013-03-03 13:32:00,
2013-03-03 08:33:00,23.0,23.0,30.03,NW,315,17.0,17.0,100,0.00,,---,0.00,VWS V14.01,2013-03-03 13:33:00,
2013-03-03 08:34:00,23.0,23.0,30.03,NW,315,15.0,15.0,100,0.00,,---,0.00,VWS V14.01,2013-03-03 13:34:00,
2013-03-03 08:36:00,23.0,23.0,30.03,NW,315,16.0,19.0,100,0.00,,---,0.00,VWS V14.01,2013-03-03 13:36:00,
2013-03-03 08:37:00,23.0,23.0,30.03,NW,315,15.0,18.0,100,0.00,,---,0.00,VWS V14.01,2013-03-03 13:37:00,
2013-03-03 08:38:00,23.0,23.0,30.03,NW,315,14.0,18.0,100,0.00,,---,0.00,VWS V14.01,2013-03-03 13:38:00,
2013-03-03 08:39:00,23.0,23.0,30.03,NW,315,13.0,17.0,100,0.00,,---,0.00,VWS V14.01,2013-03-03 13:39:00,
2013-03-03 08:41:00,23.0,23.0,30.03,NW,315,15.0,18.0,100,0.00,,---,0.00,VWS V14.01,2013-03-03 13:41:00,
2013-03-03 08:43:00,23.0,23.0,30.03,NW,315,14.0,18.0,100,0.00,,---,0.00,VWS V14.01,2013-03-03 13:43:00,
2013-03-03 08:44:00,23.0,23.0,30.03,NW,315,13.0,13.0,100,0.00,,---,0.00,VWS V14.01,2013-03-03 13:44:00,
2013-03-03 08:45:00,23.0,23.0,30.02,NW,315,15.0,16.0,100,0.00,,---,0.00,VWS V14.01,2013-03-03 13:45:00,
2013-03-03 08:46:00,23.0,23.0,30.02,NW,315,15.0,18.0,100,0.00,,---,0.00,VWS V14.01,2013-03-03 13:46:00,
2013-03-03 08:48:00,23.0,23.0,30.02,NW,315,16.0,16.0,100,0.00,,---,0.00,VWS V14.01,2013-03-03 13:48:00,
2013-03-03 08:49:00,23.0,23.0,30.02,NW,315,15.0,16.0,100,0.00,,---,0.00,VWS V14.01,2013-03-03 13:49:00,
2013-03-03 08:50:00,23.0,23.0,30.02,NW,315,17.0,17.0,100,0.00,,---,0.00,VWS V14.01,2013-03-03 13:50:00,
2013-03-03 08:51:00,23.0,23.0,30.02,NW,315,15.0,17.0,100,0.00,,---,0.00,VWS V14.01,2013-03-03 13:51:00,
2013-03-03 08:53:00,23.0,23.0,30.02,NW,315,13.0,18.0,100,0.00,,---,0.00,VWS V14.01,2013-03-03 13:53:00,
2013-03-03 08:55:00,23.0,23.0,30.03,NW,315,16.0,16.0,100,0.00,,---,0.00,VWS V14.01,2013-03-03 13:55:00,
2013-03-03 08:56:00,23.0,23.0,30.03,NW,315,13.0,15.0,100,0.00,,---,0.00,VWS V14.01,2013-03-03 13:56:00,
2013-03-03 08:58:00,23.0,23.0,30.03,NW,315,14.0,16.0,100,0.00,,---,0.00,VWS V14.01,2013-03-03 13:58:00,
2013-03-03 09:00:00,23.0,23.0,30.03,NW,315,16.0,16.0,100,0.00,,---,0.00,VWS V14.01,2013-03-03 14:00:00,
2013-03-03 09:01:00,23.0,23.0,30.03,NW,315,17.0,17.0,100,0.00,,---,0.00,VWS V14.01,2013-03-03 14:01:00,
2013-03-03 09:03:00,23.0,23.0,30.03,NW,315,14.0,18.0,100,0.00,,---,0.00,VWS V14.01,2013-03-03 14:03:00,
2013-03-03 09:05:00,23.0,23.0,30.03,NW,315,11.0,16.0,100,0.00,,---,0.00,VWS V14.01,2013-03-03 14:05:00,
2013-03-03 09:06:00,23.0,23.0,30.03,NW,315,14.0,16.0,100,0.00,,---,0.00,VWS V14.01,2013-03-03 14:06:00,
2013-03-03 09:07:00,23.0,23.0,30.03,NW,315,13.0,13.0,100,0.00,,---,0.00,VWS V14.01,2013-03-03 14:07:00,
2013-03-03 09:09:00,23.0,23.0,30.03,NW,315,13.0,14.0,100,0.00,,---,0.00,VWS V14.01,2013-03-03 14:09:00,
2013-03-03 09:10:00,23.0,23.0,30.03,NW,315,12.0,16.0,100,0.00,,---,0.00,VWS V14.01,2013-03-03 14:10:00,
2013-03-03 09:11:00,23.0,23.0,30.03,NW,315,14.0,18.0,100,0.00,,---,0.00,VWS V14.01,2013-03-03 14:11:00,
2013-03-03 09:12:00,23.0,23.0,30.03,NW,315,13.0,15.0,100,0.00,,---,0.00,VWS V14.01,2013-03-03 14:12:00,
2013-03-03 09:14:00,23.0,23.0,30.03,NW,315,16.0,17.0,100,0.00,,---,0.00,VWS V14.01,2013-03-03 14:14:00,
2013-03-03 09:15:00,23.0,23.0,30.03,NW,315,15.0,16.0,100,0.00,,---,0.00,VWS V14.01,2013-03-03 14:15:00,
2013-03-03 09:17:00,23.0,23.0,30.03,NW,315,12.0,16.0,100,0.00,,---,0.00,VWS V14.01,2013-03-03 14:17:00,
2013-03-03 09:19:00,23.0,23.0,30.03,NW,315,15.0,16.0,100,0.00,,---,0.00,VWS V14.01,2013-03-03 14:19:00,
2013-03-03 09:21:00,23.0,23.0,30.03,NW,315,15.0,16.0,100,0.00,,---,0.00,VWS V14.01,2013-03-03 14:21:00,
2013-03-03 09:22:00,23.0,23.0,30.03,NW,315,11.0,15.0,100,0.00,,---,0.00,VWS V14.01,2013-03-03 14:22:00,
2013-03-03 09:25:00,23.0,23.0,30.03,NW,315,13.0,13.0,100,0.00,,---,0.00,VWS V14.01,2013-03-03 14:25:00,
2013-03-03 09:26:00,23.0,23.0,30.03,NW,315,13.0,13.0,100,0.00,,---,0.00,VWS V14.01,2013-03-03 14:26:00,
2013-03-03 09:27:00,23.0,23.0,30.03,NW,315,16.0,18.0,100,0.00,,---,0.00,VWS V14.01,2013-03-03 14:27:00,
2013-03-03 09:30:00,23.0,23.0,30.03,NW,315,15.0,15.0,100,0.00,,---,0.00,VWS V14.01,2013-03-03 14:30:00,
2013-03-03 09:31:00,23.0,23.0,30.03,NW,315,15.0,16.0,100,0.00,,---,0.00,VWS V14.01,2013-03-03 14:31:00,
2013-03-03 09:33:00,23.0,23.0,30.03,NW,315,12.0,13.0,100,0.00,,---,0.00,VWS V14.01,2013-03-03 14:33:00,
2013-03-03 09:35:00,23.0,23.0,30.03,NW,315,16.0,16.0,100,0.00,,---,0.00,VWS V14.01,2013-03-03 14:35:00,
2013-03-03 09:36:00,23.0,23.0,30.03,NW,315,14.0,15.0,100,0.00,,---,0.00,VWS V14.01,2013-03-03 14:36:00,
2013-03-03 09:38:00,23.0,23.0,30.03,NW,315,11.0,15.0,100,0.00,,---,0.00,VWS V14.01,2013-03-03 14:38:00,
2013-03-03 09:40:00,23.0,23.0,30.03,NW,315,15.0,16.0,100,0.00,,---,0.00,VWS V14.01,2013-03-03 14:40:00,
2013-03-03 09:42:00,23.0,23.0,30.03,NW,315,14.0,14.0,100,0.00,,---,0.00,VWS V14.01,2013-03-03 14:42:00,
2013-03-03 09:43:00,23.0,23.0,30.03,NW,315,13.0,15.0,100,0.00,,---,0.00,VWS V14.01,2013-03-03 14:43:00,
2013-03-03 09:45:00,23.0,23.0,30.02,NW,315,15.0,16.0,100,0.00,,---,0.00,VWS V14.01,2013-03-03 14:45:00,
2013-03-03 09:47:00,23.0,23.0,30.02,NW,315,11.0,15.0,100,0.00,,---,0.00,VWS V14.01,2013-03-03 14:47:00,
2013-03-03 09:48:00,23.0,23.0,30.02,NW,315,15.0,15.0,100,0.00,,---,0.00,VWS V14.01,2013-03-03 14:48:00,
2013-03-03 09:50:00,23.0,23.0,30.02,NW,315,12.0,16.0,100,0.00,,---,0.00,VWS V14.01,2013-03-03 14:50:00,
2013-03-03 09:52:00,23.0,23.0,30.02,NW,315,14.0,17.0,100,0.00,,---,0.00,VWS V14.01,2013-03-03 14:52:00,
2013-03-03 09:53:00,23.0,23.0,30.02,NW,315,13.0,17.0,100,0.00,,---,0.00,VWS V14.01,2013-03-03 14:53:00,
2013-03-03 09:55:00,23.0,23.0,30.03,NW,315,15.0,16.0,100,0.00,,---,0.00,VWS V14.01,2013-03-03 14:55:00,
2013-03-03 09:58:00,23.0,23.0,30.03,NW,315,14.0,16.0,100,0.00,,---,0.00,VWS V14.01,2013-03-03 14:58:00,
2013-03-03 10:00:00,23.0,23.0,30.03,NW,315,10.0,17.0,100,0.00,,---,0.00,VWS V14.01,2013-03-03 15:00:00,
2013-03-03 10:03:00,23.0,23.0,30.03,NW,315,16.0,18.0,100,0.00,,---,0.00,VWS V14.01,2013-03-03 15:03:00,
2013-03-03 10:04:00,23.0,23.0,30.03,NW,315,16.0,17.0,100,0.00,,---,0.00,VWS V14.01,2013-03-03 15:04:00,
2013-03-03 10:06:00,23.0,23.0,30.03,NW,315,14.0,16.0,100,0.00,,---,0.00,VWS V14.01,2013-03-03 15:06:00,
2013-03-03 10:08:00,23.0,23.0,30.03,NW,315,14.0,15.0,100,0.00,,---,0.00,VWS V14.01,2013-03-03 15:08:00,
2013-03-03 10:09:00,23.0,23.0,30.03,NW,315,13.0,16.0,100,0.00,,---,0.00,VWS V14.01,2013-03-03 15:09:00,
2013-03-03 10:11:00,23.0,23.0,30.03,NW,315,16.0,18.0,100,0.00,,---,0.00,VWS V14.01,2013-03-03 15:11:00,
2013-03-03 10:13:00,23.0,23.0,30.03,NW,315,13.0,16.0,100,0.00,,---,0.00,VWS V14.01,2013-03-03 15:13:00,
2013-03-03 10:14:00,23.0,23.0,30.03,NW,315,15.0,17.0,100,0.00,,---,0.00,VWS V14.01,2013-03-03 15:14:00,
2013-03-03 10:16:00,23.0,23.0,30.03,NW,315,15.0,18.0,100,0.00,,---,0.00,VWS V14.01,2013-03-03 15:16:00,
2013-03-03 10:18:00,23.0,23.0,30.03,NW,315,11.0,16.0,100,0.00,,---,0.00,VWS V14.01,2013-03-03 15:18:00,
2013-03-03 10:19:00,23.0,23.0,30.03,NW,315,11.0,11.0,100,0.00,,---,0.00,VWS V14.01,2013-03-03 15:19:00,
2013-03-03 10:22:00,23.0,23.0,30.03,NW,315,15.0,15.0,100,0.00,,---,0.00,VWS V14.01,2013-03-03 15:22:00,
2013-03-03 10:24:00,23.0,23.0,30.03,NW,315,14.0,15.0,100,0.00,,---,0.00,VWS V14.01,2013-03-03 15:24:00,
2013-03-03 10:27:00,23.0,23.0,30.03,NW,315,14.0,16.0,100,0.00,,---,0.00,VWS V14.01,2013-03-03 15:27:00,
2013-03-03 10:29:00,23.0,23.0,30.03,NW,315,12.0,16.0,100,0.00,,---,0.00,VWS V14.01,2013-03-03 15:29:00,
2013-03-03 10:30:00,23.0,23.0,30.03,NW,315,13.0,16.0,100,0.00,,---,0.00,VWS V14.01,2013-03-03 15:30:00,
2013-03-03 10:34:00,23.0,23.0,30.03,NW,315,13.0,14.0,100,0.00,,---,0.00,VWS V14.01,2013-03-03 15:34:00,
2013-03-03 10:35:00,23.0,23.0,30.03,NW,315,13.0,16.0,100,0.00,,---,0.00,VWS V14.01,2013-03-03 15:35:00,
2013-03-03 10:39:00,23.0,23.0,30.03,NW,315,18.0,18.0,100,0.00,,---,0.00,VWS V14.01,2013-03-03 15:39:00,
2013-03-03 10:40:00,23.0,23.0,30.03,NW,315,13.0,15.0,100,0.00,,---,0.00,VWS V14.01,2013-03-03 15:40:00,
2013-03-03 10:46:00,22.0,22.0,30.03,NW,315,17.0,19.0,100,0.00,,---,0.00,VWS V14.01,2013-03-03 15:46:00,
2013-03-03 10:47:00,22.0,22.0,30.03,NW,315,15.0,15.0,100,0.00,,---,0.00,VWS V14.01,2013-03-03 15:47:00,
2013-03-03 10:51:00,22.0,22.0,30.03,NW,315,14.0,17.0,100,0.00,,---,0.00,VWS V14.01,2013-03-03 15:51:00,
2013-03-03 10:52:00,22.0,22.0,30.03,NW,315,13.0,18.0,100,0.00,,---,0.00,VWS V14.01,2013-03-03 15:52:00,
2013-03-03 10:56:00,23.0,23.0,30.03,NW,315,17.0,18.0,100,0.00,,---,0.00,VWS V14.01,2013-03-03 15:56:00,
2013-03-03 10:57:00,23.0,23.0,30.03,NW,315,16.0,18.0,100,0.00,,---,0.00,VWS V14.01,2013-03-03 15:57:00,
2013-03-03 11:00:00,23.0,23.0,30.03,NW,315,15.0,15.0,100,0.00,,---,0.00,VWS V14.01,2013-03-03 16:00:00,
2013-03-03 11:01:00,23.0,23.0,30.03,NW,315,15.0,18.0,100,0.00,,---,0.00,VWS V14.01,2013-03-03 16:01:00,
2013-03-03 11:02:00,23.0,23.0,30.03,WNW,292,12.0,15.0,100,0.00,,---,0.00,VWS V14.01,2013-03-03 16:02:00,
2013-03-03 11:06:00,23.0,23.0,30.03,NW,315,15.0,17.0,100,0.00,,---,0.00,VWS V14.01,2013-03-03 16:06:00,
2013-03-03 11:07:00,23.0,23.0,30.03,NW,315,16.0,16.0,100,0.00,,---,0.00,VWS V14.01,2013-03-03 16:07:00,
2013-03-03 11:08:00,23.0,23.0,30.03,NW,315,14.0,15.0,100,0.00,,---,0.00,VWS V14.01,2013-03-03 16:08:00,
2013-03-03 11:12:00,23.0,23.0,30.03,NW,315,13.0,16.0,100,0.00,,---,0.00,VWS V14.01,2013-03-03 16:12:00,
2013-03-03 11:14:00,23.0,23.0,30.03,NW,315,13.0,16.0,100,0.00,,---,0.00,VWS V14.01,2013-03-03 16:14:00,
2013-03-03 11:17:00,23.0,23.0,30.03,NW,315,16.0,16.0,100,0.00,,---,0.00,VWS V14.01,2013-03-03 16:17:00,
2013-03-03 11:19:00,23.0,23.0,30.03,NW,315,13.0,16.0,100,0.00,,---,0.00,VWS V14.01,2013-03-03 16:19:00,
2013-03-03 11:22:00,23.0,23.0,30.03,NW,315,13.0,16.0,100,0.00,,---,0.00,VWS V14.01,2013-03-03 16:22:00,
2013-03-03 11:23:00,23.0,23.0,30.03,NW,315,13.0,14.0,100,0.00,,---,0.00,VWS V14.01,2013-03-03 16:23:00,
2013-03-03 11:24:00,23.0,23.0,30.03,NW,315,13.0,19.0,100,0.00,,---,0.00,VWS V14.01,2013-03-03 16:24:00,
2013-03-03 11:27:00,23.0,23.0,30.03,NW,315,16.0,17.0,100,0.00,,---,0.00,VWS V14.01,2013-03-03 16:27:00,
2013-03-03 11:28:00,23.0,23.0,30.03,NW,315,13.0,16.0,100,0.00,,---,0.00,VWS V14.01,2013-03-03 16:28:00,
2013-03-03 11:29:00,23.0,23.0,30.03,NW,315,14.0,17.0,100,0.00,,---,0.00,VWS V14.01,2013-03-03 16:29:00,
2013-03-03 11:34:00,23.0,23.0,30.03,NW,315,13.0,15.0,100,0.00,,---,0.00,VWS V14.01,2013-03-03 16:34:00,
2013-03-03 11:35:00,24.0,24.0,30.03,NW,315,13.0,16.0,100,0.00,,---,0.00,VWS V14.01,2013-03-03 16:35:00,
2013-03-03 11:39:00,23.0,23.0,30.03,NW,315,11.0,16.0,100,0.00,,---,0.00,VWS V14.01,2013-03-03 16:39:00,
2013-03-03 11:40:00,23.0,23.0,30.03,NW,315,13.0,15.0,100,0.00,,---,0.00,VWS V14.01,2013-03-03 16:40:00,
2013-03-03 11:44:00,23.0,23.0,30.03,NW,315,16.0,16.0,100,0.00,,---,0.00,VWS V14.01,2013-03-03 16:44:00,
2013-03-03 11:45:00,23.0,23.0,30.03,NW,315,16.0,17.0,100,0.00,,---,0.00,VWS V14.01,2013-03-03 16:45:00,
2013-03-03 11:49:00,23.0,23.0,30.03,NW,315,16.0,18.0,100,0.00,,---,0.00,VWS V14.01,2013-03-03 16:49:00,
2013-03-03 11:50:00,23.0,23.0,30.03,NW,315,15.0,18.0,100,0.00,,---,0.00,VWS V14.01,2013-03-03 16:50:00,
2013-03-03 11:52:00,23.0,23.0,30.03,NW,315,16.0,16.0,100,0.00,,---,0.00,VWS V14.01,2013-03-03 16:52:00,
2013-03-03 11:57:00,23.0,23.0,30.03,NW,315,15.0,18.0,100,0.00,,---,0.00,VWS V14.01,2013-03-03 16:57:00,
2013-03-03 12:02:00,23.0,23.0,30.03,NW,315,13.0,18.0,100,0.00,,---,0.00,VWS V14.01,2013-03-03 17:02:00,
2013-03-03 12:07:00,23.0,23.0,30.03,NW,315,16.0,18.0,100,0.00,,---,0.00,VWS V14.01,2013-03-03 17:07:00,
2013-03-03 12:12:00,24.0,24.0,30.03,NW,315,11.0,11.0,100,0.00,,---,0.00,VWS V14.01,2013-03-03 17:12:00,
2013-03-03 12:17:00,23.0,23.0,30.04,NW,315,16.0,18.0,100,0.00,,---,0.00,VWS V14.01,2013-03-03 17:17:00,
2013-03-03 12:22:00,23.0,23.0,30.04,NW,315,13.0,18.0,100,0.00,,---,0.00,VWS V14.01,2013-03-03 17:22:00,
2013-03-03 12:27:00,23.0,23.0,30.03,NW,315,15.0,20.0,100,0.00,,---,0.00,VWS V14.01,2013-03-03 17:27:00,
2013-03-03 12:32:00,23.0,23.0,30.03,NW,315,14.0,17.0,100,0.00,,---,0.00,VWS V14.01,2013-03-03 17:32:00,
2013-03-03 12:38:00,23.0,23.0,30.03,NW,315,18.0,18.0,100,0.00,,---,0.00,VWS V14.01,2013-03-03 17:38:00,
2013-03-03 12:43:00,23.0,23.0,30.03,NW,315,11.0,18.0,100,0.00,,---,0.00,VWS V14.01,2013-03-03 17:43:00,
2013-03-03 12:48:00,23.0,23.0,30.03,NW,315,11.0,18.0,100,0.00,,---,0.00,VWS V14.01,2013-03-03 17:48:00,
2013-03-03 12:53:00,23.0,23.0,30.03,NW,315,14.0,16.0,100,0.00,,---,0.00,VWS V14.01,2013-03-03 17:53:00,
2013-03-03 12:58:00,23.0,23.0,30.03,NW,315,15.0,18.0,100,0.00,,---,0.00,VWS V14.01,2013-03-03 17:58:00,
2013-03-03 13:03:00,23.0,23.0,30.03,NW,315,18.0,18.0,100,0.00,,---,0.00,VWS V14.01,2013-03-03 18:03:00,
2013-03-03 13:04:00,23.0,23.0,30.03,NW,315,15.0,15.0,100,0.00,,---,0.00,VWS V14.01,2013-03-03 18:04:00,
2013-03-03 13:08:00,23.0,23.0,30.03,NW,315,15.0,15.0,100,0.00,,---,0.00,VWS V14.01,2013-03-03 18:08:00,
2013-03-03 13:13:00,23.0,23.0,30.03,NW,315,15.0,15.0,100,0.00,,---,0.00,VWS V14.01,2013-03-03 18:13:00,
2013-03-03 13:52:00,23.0,22.8,30.02,NW,315,13.0,15.0,99,0.00,,---,0.00,VWS V14.01,2013-03-03 18:52:00,
2013-03-03 13:57:00,23.0,22.5,30.02,NW,315,14.0,15.0,98,0.00,,---,0.00,VWS V14.01,2013-03-03 18:57:00,
2013-03-03 14:02:00,23.0,22.3,30.02,NW,315,15.0,16.0,97,0.00,,---,0.00,VWS V14.01,2013-03-03 19:02:00,
2013-03-03 14:07:00,23.0,21.8,30.02,NW,315,14.0,16.0,95,0.00,,---,0.00,VWS V14.01,2013-03-03 19:07:00,
2013-03-03 14:12:00,23.0,21.8,30.02,NW,315,15.0,17.0,95,0.00,,---,0.00,VWS V14.01,2013-03-03 19:12:00,
2013-03-03 14:17:00,23.0,22.5,30.02,NW,315,16.0,16.0,98,0.00,,---,0.00,VWS V14.01,2013-03-03 19:17:00,
2013-03-03 14:22:00,23.0,22.3,30.02,NW,315,11.0,16.0,97,0.00,,---,0.00,VWS V14.01,2013-03-03 19:22:00,
2013-03-03 14:27:00,23.0,21.8,30.02,NW,315,12.0,13.0,95,0.00,,---,0.00,VWS V14.01,2013-03-03 19:27:00,
2013-03-03 14:32:00,24.0,22.3,30.02,WNW,292,13.0,15.0,93,0.00,,---,0.00,VWS V14.01,2013-03-03 19:32:00,
2013-03-03 14:37:00,24.0,22.3,30.02,NW,315,11.0,14.0,93,0.00,,---,0.00,VWS V14.01,2013-03-03 19:37:00,
2013-03-03 14:42:00,24.0,22.5,30.02,NW,315,13.0,13.0,94,0.00,,---,0.00,VWS V14.01,2013-03-03 19:42:00,
2013-03-03 14:47:00,24.0,23.0,30.02,NW,315,11.0,15.0,96,0.00,,---,0.00,VWS V14.01,2013-03-03 19:47:00,
2013-03-03 14:52:00,23.0,22.3,30.02,NW,315,10.0,13.0,97,0.00,,---,0.00,VWS V14.01,2013-03-03 19:52:00,
2013-03-03 14:57:00,24.0,23.3,30.02,NW,315,10.0,12.0,97,0.00,,---,0.00,VWS V14.01,2013-03-03 19:57:00,
2013-03-03 15:02:00,24.0,23.5,30.02,NW,315,8.0,11.0,98,0.00,,---,0.00,VWS V14.01,2013-03-03 20:02:00,
2013-03-03 15:07:00,24.0,23.0,30.02,NW,315,10.0,13.0,96,0.00,,---,0.00,VWS V14.01,2013-03-03 20:07:00,
2013-03-03 15:12:00,24.0,22.5,30.02,NW,315,9.0,12.0,94,0.00,,---,0.00,VWS V14.01,2013-03-03 20:12:00,
2013-03-03 15:17:00,24.0,22.5,30.02,NW,315,11.0,11.0,94,0.00,,---,0.00,VWS V14.01,2013-03-03 20:17:00,
2013-03-03 15:22:00,24.0,22.8,30.02,West,270,6.0,11.0,95,0.00,,---,0.00,VWS V14.01,2013-03-03 20:22:00,
2013-03-03 15:27:00,24.0,22.8,30.02,WNW,292,6.0,10.0,95,0.00,,---,0.00,VWS V14.01,2013-03-03 20:27:00,
2013-03-03 15:32:00,24.0,22.5,30.02,NW,315,11.0,11.0,94,0.00,,---,0.00,VWS V14.01,2013-03-03 20:32:00,
2013-03-03 15:37:00,24.0,22.5,30.02,NW,315,7.0,10.0,94,0.00,,---,0.00,VWS V14.01,2013-03-03 20:37:00,
2013-03-03 15:42:00,24.0,22.5,30.02,West,270,6.0,10.0,94,0.00,,---,0.00,VWS V14.01,2013-03-03 20:42:00,
2013-03-03 15:47:00,24.0,22.5,30.02,WNW,292,10.0,13.0,94,0.00,,---,0.00,VWS V14.01,2013-03-03 20:47:00,
2013-03-03 15:52:00,24.0,22.5,30.02,West,270,8.0,11.0,94,0.00,,---,0.00,VWS V14.01,2013-03-03 20:52:00,
2013-03-03 15:57:00,24.0,22.5,30.02,West,270,7.0,9.0,94,0.00,,---,0.00,VWS V14.01,2013-03-03 20:57:00,
2013-03-03 16:02:00,25.0,23.5,30.02,West,270,10.0,13.0,94,0.00,,---,0.00,VWS V14.01,2013-03-03 21:02:00,
2013-03-03 16:07:00,25.0,22.2,30.02,WNW,292,13.0,13.0,89,0.00,,---,0.00,VWS V14.01,2013-03-03 21:07:00,
2013-03-03 16:12:00,25.0,22.2,30.02,WNW,292,13.0,13.0,89,0.00,,---,0.00,VWS V14.01,2013-03-03 21:12:00,
2013-03-03 16:17:00,25.0,21.7,30.02,West,270,7.0,7.0,87,0.00,,---,0.00,VWS V14.01,2013-03-03 21:17:00,
2013-03-03 16:23:00,25.0,22.2,30.02,WNW,292,8.0,8.0,89,0.00,,---,0.00,VWS V14.01,2013-03-03 21:23:00,
2013-03-03 16:28:00,24.0,22.3,30.03,NNW,337,15.0,16.0,93,0.00,,---,0.00,VWS V14.01,2013-03-03 21:28:00,
2013-03-03 16:33:00,24.0,23.8,30.03,NNW,337,10.0,12.0,99,0.00,,---,0.00,VWS V14.01,2013-03-03 21:33:00,
2013-03-03 16:38:00,24.0,23.8,30.03,NNW,337,9.0,10.0,99,0.00,,---,0.00,VWS V14.01,2013-03-03 21:38:00,
2013-03-03 16:43:00,24.0,23.8,30.03,NW,315,8.0,8.0,99,0.00,,---,0.00,VWS V14.01,2013-03-03 21:43:00,
2013-03-03 16:48:00,24.0,24.0,30.03,NW,315,8.0,8.0,100,0.00,,---,0.00,VWS V14.01,2013-03-03 21:48:00,
2013-03-03 16:53:00,24.0,23.8,30.03,NW,315,15.0,15.0,99,0.00,,---,0.00,VWS V14.01,2013-03-03 21:53:00,
2013-03-03 16:58:00,25.0,21.4,30.02,WNW,292,10.0,15.0,86,0.00,,---,0.00,VWS V14.01,2013-03-03 21:58:00,
2013-03-03 17:03:00,25.0,20.9,30.02,WNW,292,11.0,13.0,84,0.00,,---,0.00,VWS V14.01,2013-03-03 22:03:00,
2013-03-03 17:08:00,25.0,21.1,30.03,NW,315,10.0,13.0,85,0.00,,---,0.00,VWS V14.01,2013-03-03 22:08:00,
2013-03-03 17:13:00,25.0,20.9,30.03,NW,315,15.0,15.0,84,0.00,,---,0.00,VWS V14.01,2013-03-03 22:13:00,
2013-03-03 17:18:00,25.0,20.6,30.03,NW,315,13.0,15.0,83,0.00,,---,0.00,VWS V14.01,2013-03-03 22:18:00,
2013-03-03 17:23:00,25.0,20.6,30.03,NW,315,13.0,13.0,83,0.00,,---,0.00,VWS V14.01,2013-03-03 22:23:00,
2013-03-03 17:28:00,25.0,21.4,30.03,NW,315,11.0,14.0,86,0.00,,---,0.00,VWS V14.01,2013-03-03 22:28:00,
2013-03-03 17:33:00,25.0,21.7,30.03,West,270,16.0,16.0,87,0.00,,---,0.00,VWS V14.01,2013-03-03 22:33:00,
2013-03-03 17:38:00,25.0,21.1,30.03,WNW,292,13.0,18.0,85,0.00,,---,0.00,VWS V14.01,2013-03-03 22:38:00,
2013-03-03 17:43:00,24.0,20.4,30.03,West,270,9.0,13.0,86,0.00,,---,0.00,VWS V14.01,2013-03-03 22:43:00,
2013-03-03 17:48:00,25.0,21.4,30.04,WNW,292,9.0,15.0,86,0.00,,---,0.00,VWS V14.01,2013-03-03 22:48:00,
2013-03-03 17:53:00,25.0,21.7,30.04,West,270,7.0,14.0,87,0.00,,---,0.00,VWS V14.01,2013-03-03 22:53:00,
2013-03-03 17:58:00,25.0,21.4,30.04,West,270,11.0,11.0,86,0.00,,---,0.00,VWS V14.01,2013-03-03 22:58:00,
2013-03-03 18:03:00,25.0,21.7,30.04,West,270,8.0,13.0,87,0.00,,---,0.00,VWS V14.01,2013-03-03 23:03:00,
2013-03-03 18:08:00,25.0,22.0,30.04,WNW,292,11.0,13.0,88,0.00,,---,0.00,VWS V14.01,2013-03-03 23:08:00,
2013-03-03 18:13:00,24.0,21.0,30.04,West,270,13.0,15.0,88,0.00,,---,0.00,VWS V14.01,2013-03-03 23:13:00,
2013-03-03 18:18:00,25.0,22.2,30.04,West,270,13.0,16.0,89,0.00,,---,0.00,VWS V14.01,2013-03-03 23:18:00,
2013-03-03 18:23:00,24.0,21.0,30.04,West,270,9.0,13.0,88,0.00,,---,0.00,VWS V14.01,2013-03-03 23:23:00,
2013-03-03 18:28:00,24.0,21.2,30.04,West,270,13.0,15.0,89,0.00,,---,0.00,VWS V14.01,2013-03-03 23:28:00,
2013-03-03 18:33:00,24.0,22.0,30.04,West,270,12.0,15.0,92,0.00,,---,0.00,VWS V14.01,2013-03-03 23:33:00,
2013-03-03 18:38:00,24.0,21.8,30.05,West,270,12.0,16.0,91,0.00,,---,0.00,VWS V14.01,2013-03-03 23:38:00,
2013-03-03 18:43:00,24.0,22.0,30.05,West,270,10.0,15.0,92,0.00,,---,0.00,VWS V14.01,2013-03-03 23:43:00,
2013-03-03 18:48:00,24.0,22.0,30.05,West,270,13.0,16.0,92,0.00,,---,0.00,VWS V14.01,2013-03-03 23:48:00,
2013-03-03 18:53:00,24.0,21.8,30.05,West,270,11.0,16.0,91,0.00,,---,0.00,VWS V14.01,2013-03-03 23:53:00,
2013-03-03 18:58:00,24.0,22.3,30.04,West,270,12.0,13.0,93,0.00,,---,0.00,VWS V14.01,2013-03-03 23:58:00,
2013-03-03 19:03:00,24.0,21.2,30.04,WNW,292,8.0,14.0,89,0.00,,---,0.00,VWS V14.01,2013-03-04 00:03:00,
2013-03-03 19:08:00,24.0,20.7,30.05,WNW,292,9.0,15.0,87,0.00,,---,0.00,VWS V14.01,2013-03-04 00:08:00,
2013-03-03 19:13:00,24.0,21.2,30.05,WNW,292,10.0,12.0,89,0.00,,---,0.00,VWS V14.01,2013-03-04 00:13:00,
2013-03-03 19:18:00,24.0,21.2,30.05,NW,315,6.0,11.0,89,0.00,,---,0.00,VWS V14.01,2013-03-04 00:18:00,
2013-03-03 19:23:00,24.0,21.8,30.05,WNW,292,10.0,11.0,91,0.00,,---,0.00,VWS V14.01,2013-03-04 00:23:00,
2013-03-03 19:28:00,24.0,21.8,30.05,NW,315,10.0,14.0,91,0.00,,---,0.00,VWS V14.01,2013-03-04 00:28:00,
2013-03-03 19:33:00,24.0,21.8,30.05,NW,315,7.0,12.0,91,0.00,,---,0.00,VWS V14.01,2013-03-04 00:33:00,
2013-03-03 19:38:00,24.0,20.7,30.05,WNW,292,10.0,15.0,87,0.00,,---,0.00,VWS V14.01,2013-03-04 00:38:00,
2013-03-03 19:43:00,25.0,22.2,30.05,West,270,9.0,9.0,89,0.00,,---,0.00,VWS V14.01,2013-03-04 00:43:00,
2013-03-03 19:49:00,24.0,21.2,30.05,NW,315,10.0,12.0,89,0.00,,---,0.00,VWS V14.01,2013-03-04 00:49:00,
2013-03-03 19:54:00,24.0,21.5,30.05,West,270,11.0,13.0,90,0.00,,---,0.00,VWS V14.01,2013-03-04 00:54:00,
2013-03-03 19:59:00,25.0,22.8,30.05,West,270,13.0,15.0,91,0.00,,---,0.00,VWS V14.01,2013-03-04 00:59:00,
2013-03-03 20:04:00,25.0,22.5,30.05,West,270,7.0,12.0,90,0.00,,---,0.00,VWS V14.01,2013-03-04 01:04:00,
2013-03-03 20:09:00,25.0,22.5,30.06,WNW,292,8.0,15.0,90,0.00,,---,0.00,VWS V14.01,2013-03-04 01:09:00,
2013-03-03 20:14:00,25.0,22.2,30.06,WNW,292,10.0,11.0,89,0.00,,---,0.00,VWS V14.01,2013-03-04 01:14:00,
2013-03-03 20:19:00,24.0,22.3,30.06,North,360,11.0,13.0,93,0.00,,---,0.00,VWS V14.01,2013-03-04 01:19:00,
2013-03-03 20:24:00,24.0,23.0,30.06,North,360,11.0,11.0,96,0.00,,---,0.00,VWS V14.01,2013-03-04 01:24:00,
2013-03-03 20:29:00,24.0,23.0,30.06,NNE,22,10.0,12.0,96,0.00,,---,0.00,VWS V14.01,2013-03-04 01:29:00,
2013-03-03 20:34:00,24.0,23.0,30.06,North,360,9.0,11.0,96,0.00,,---,0.00,VWS V14.01,2013-03-04 01:34:00,
2013-03-03 20:39:00,24.0,23.0,30.06,North,360,8.0,8.0,96,0.00,,---,0.00,VWS V14.01,2013-03-04 01:39:00,
2013-03-03 20:44:00,24.0,23.0,30.06,North,360,8.0,8.0,96,0.00,,---,0.00,VWS V14.01,2013-03-04 01:44:00,
2013-03-03 20:49:00,24.0,22.8,30.07,NNW,337,11.0,11.0,95,0.00,,---,0.00,VWS V14.01,2013-03-04 01:49:00,
2013-03-03 20:54:00,24.0,22.5,30.07,North,360,11.0,13.0,94,0.00,,---,0.00,VWS V14.01,2013-03-04 01:54:00,
2013-03-03 20:59:00,24.0,22.5,30.06,NNW,337,13.0,16.0,94,0.00,,---,0.00,VWS V14.01,2013-03-04 01:59:00,
2013-03-03 21:04:00,24.0,22.3,30.06,NNW,337,15.0,16.0,93,0.00,,---,0.00,VWS V14.01,2013-03-04 02:04:00,
2013-03-03 21:09:00,24.0,22.3,30.07,NNW,337,13.0,16.0,93,0.00,,---,0.00,VWS V14.01,2013-03-04 02:09:00,
2013-03-03 21:14:00,24.0,22.3,30.07,NNW,337,13.0,14.0,93,0.00,,---,0.00,VWS V14.01,2013-03-04 02:14:00,
2013-03-03 21:19:00,24.0,22.8,30.07,NNW,337,13.0,15.0,95,0.00,,---,0.00,VWS V14.01,2013-03-04 02:19:00,
2013-03-03 21:24:00,24.0,23.0,30.07,NNW,337,16.0,17.0,96,0.00,,---,0.00,VWS V14.01,2013-03-04 02:24:00,
2013-03-03 21:29:00,24.0,22.5,30.07,NNW,337,15.0,16.0,94,0.00,,---,0.00,VWS V14.01,2013-03-04 02:29:00,
2013-03-03 21:34:00,23.0,22.8,30.07,NNW,337,14.0,16.0,99,0.00,,---,0.00,VWS V14.01,2013-03-04 02:34:00,
2013-03-03 21:39:00,23.0,23.0,30.07,NW,315,13.0,18.0,100,0.00,,---,0.00,VWS V14.01,2013-03-04 02:39:00,
2013-03-03 21:44:00,23.0,23.0,30.07,NW,315,15.0,16.0,100,0.00,,---,0.00,VWS V14.01,2013-03-04 02:44:00,
2013-03-03 21:49:00,23.0,23.0,30.07,NNW,337,12.0,13.0,100,0.00,,---,0.00,VWS V14.01,2013-03-04 02:49:00,
2013-03-03 21:54:00,23.0,23.0,30.07,NW,315,12.0,12.0,100,0.00,,---,0.00,VWS V14.01,2013-03-04 02:54:00,
2013-03-03 21:59:00,23.0,22.8,30.07,NW,315,15.0,16.0,99,0.00,,---,0.00,VWS V14.01,2013-03-04 02:59:00,
2013-03-03 22:04:00,23.0,23.0,30.07,NW,315,11.0,15.0,100,0.00,,---,0.00,VWS V14.01,2013-03-04 03:04:00,
2013-03-03 22:09:00,23.0,22.8,30.07,NW,315,13.0,13.0,99,0.00,,---,0.00,VWS V14.01,2013-03-04 03:09:00,
2013-03-03 22:14:00,23.0,22.8,30.07,NW,315,11.0,13.0,99,0.00,,---,0.00,VWS V14.01,2013-03-04 03:14:00,
2013-03-03 22:19:00,23.0,22.0,30.07,NW,315,12.0,16.0,96,0.00,,---,0.00,VWS V14.01,2013-03-04 03:19:00,
2013-03-03 22:24:00,23.0,20.8,30.07,NW,315,14.0,18.0,91,0.00,,---,0.00,VWS V14.01,2013-03-04 03:24:00,
2013-03-03 22:29:00,23.0,21.0,30.07,NW,315,15.0,16.0,92,0.00,,---,0.00,VWS V14.01,2013-03-04 03:29:00,
2013-03-03 22:34:00,23.0,20.8,30.06,NW,315,18.0,19.0,91,0.00,,---,0.00,VWS V14.01,2013-03-04 03:34:00,
2013-03-03 22:39:00,23.0,21.3,30.06,NW,315,15.0,18.0,93,0.00,,---,0.00,VWS V14.01,2013-03-04 03:39:00,
2013-03-03 22:44:00,23.0,21.5,30.06,NW,315,16.0,19.0,94,0.00,,---,0.00,VWS V14.01,2013-03-04 03:44:00,
2013-03-03 22:49:00,23.0,21.5,30.06,NW,315,14.0,18.0,94,0.00,,---,0.00,VWS V14.01,2013-03-04 03:49:00,
2013-03-03 22:54:00,23.0,21.5,30.07,NW,315,13.0,16.0,94,0.00,,---,0.00,VWS V14.01,2013-03-04 03:54:00,
2013-03-03 22:59:00,23.0,21.5,30.07,NNW,337,16.0,17.0,94,0.00,,---,0.00,VWS V14.01,2013-03-04 03:59:00,
2013-03-03 23:04:00,23.0,21.0,30.07,NW,315,11.0,17.0,92,0.00,,---,0.00,VWS V14.01,2013-03-04 04:04:00,
2013-03-03 23:09:00,23.0,20.5,30.07,NNW,337,12.0,15.0,90,0.00,,---,0.00,VWS V14.01,2013-03-04 04:09:00,
2013-03-03 23:14:00,23.0,20.2,30.06,NW,315,16.0,18.0,89,0.00,,---,0.00,VWS V14.01,2013-03-04 04:14:00,
2013-03-03 23:19:00,23.0,20.8,30.06,NNW,337,12.0,15.0,91,0.00,,---,0.00,VWS V14.01,2013-03-04 04:19:00,
2013-03-03 23:24:00,23.0,20.5,30.07,North,360,13.0,16.0,90,0.00,,---,0.00,VWS V14.01,2013-03-04 04:24:00,
2013-03-03 23:29:00,23.0,20.5,30.07,NNW,337,15.0,15.0,90,0.00,,---,0.00,VWS V14.01,2013-03-04 04:29:00,
2013-03-03 23:34:00,23.0,20.5,30.07,NNW,337,11.0,15.0,90,0.00,,---,0.00,VWS V14.01,2013-03-04 04:34:00,
2013-03-03 23:39:00,23.0,21.0,30.07,North,360,11.0,12.0,92,0.00,,---,0.00,VWS V14.01,2013-03-04 04:39:00,
2013-03-03 23:44:00,23.0,20.5,30.07,NNW,337,12.0,13.0,90,0.00,,---,0.00,VWS V14.01,2013-03-04 04:44:00,
2013-03-03 23:49:00,23.0,20.2,30.07,NNW,337,12.0,15.0,89,0.00,,---,0.00,VWS V14.01,2013-03-04 04:49:00,
2013-03-03 23:54:00,23.0,21.0,30.07,North,360,8.0,12.0,92,0.00,,---,0.00,VWS V14.01,2013-03-04 04:54:00,
2013-03-03 23:59:00,23.0,20.5,30.07,North,360,13.0,13.0,90,0.00,,---,0.00,VWS V14.01,2013-03-04 04:59:00,